Theta_e
299 299 298 298 298 298 298 298 298 298 298 298 298 298 300 302 303 303 305 306 305 304 300 299 300 299 299 299 299 299 300 300 300 299 299 298 298 298 298 298 298 298 298 299 299 300 300 300 300 300 300 300 300 300 300 300 299 299 299 298 298 298 298 298 297 297 297 297 298 298 299 299 299 300
298 298 298 298 298 298 298 298 298 298 298 298 298 297 297 298 298 300 302 303 304 302 299 298 299 299 300 300 299 300 300 300 300 299 299 298 298 298 297 298 298 298 298 299 299 300 300 300 300 301 301 300 301 300 300 300 299 299 299 298 298 298 297 297 296 296 296 297 297 297 297 298 298 299
298 297 298 298 298 298 298 297 298 298 298 298 299 298 299 299 297 298 300 300 301 300 299 298 299 299 300 300 300 300 300 300 300 299 299 298 298 297 297 297 297 297 298 299 300 300 300 300 300 301 301 300 300 300 300 300 299 299 298 298 297 297 297 297 296 296 296 297 297 298 298 298 298 298
297 297 298 298 298 298 297 297 297 297 297 298 298 298 300 301 298 297 299 299 298 299 299 299 298 299 300 300 300 300 301 300 300 300 299 298 297 297 297 297 297 297 298 299 300 300 300 301 301 300 301 300 300 300 300 299 299 298 298 297 297 297 296 296 296 296 296 297 297 297 298 298 297 298
297 297 298 298 298 298 298 298 298 297 298 299 299 299 300 299 298 297 297 298 298 298 299 298 298 299 300 300 300 300 301 301 301 300 298 297 297 296 296 297 297 297 298 299 300 300 301 301 301 301 301 300 300 300 299 299 298 298 297 297 297 297 297 296 296 296 296 296 296 297 297 297 297 297
297 298 298 297 297 297 297 298 298 297 298 299 299 298 298 298 297 297 296 297 298 298 298 298 298 299 300 300 300 300 300 301 300 299 297 297 296 296 296 296 297 297 298 299 300 300 301 301 301 301 300 299 298 298 298 298 298 298 297 297 297 297 297 296 296 297 296 296 296 296 296 297 297 297
297 298 297 297 297 297 297 297 297 297 297 299 298 297 297 298 297 296 296 297 298 298 298 298 298 299 299 300 300 300 300 300 299 297 296 296 296 296 296 296 297 297 298 299 300 300 301 301 300 300 299 299 298 297 297 297 297 297 297 297 297 297 297 297 297 297 297 296 296 296 296 296 296 297
297 297 297 297 296 297 297 297 297 297 297 297 297 297 296 297 297 296 296 297 298 298 298 298 298 299 299 300 299 299 300 299 297 296 296 296 295 296 296 296 296 297 298 299 300 300 301 300 300 300 299 299 299 298 297 296 296 296 297 297 297 297 297 297 297 297 297 296 296 296 296 296 296 296
297 297 297 296 297 297 297 297 297 297 297 297 297 297 296 296 296 296 296 296 297 297 298 298 298 298 299 299 299 299 299 298 296 296 296 295 295 296 295 296 296 297 298 300 300 300 300 300 300 299 299 299 299 298 298 296 296 296 296 297 297 297 297 297 297 297 297 297 296 296 296 296 295 296
297 297 297 297 297 297 297 297 297 296 296 297 297 297 297 296 297 296 296 296 296 296 297 297 297 297 298 298 299 299 298 296 296 296 295 295 295 295 295 295 296 297 299 300 300 300 300 300 300 299 299 299 299 298 297 296 295 295 296 296 297 297 297 297 296 296 296 296 296 296 296 296 296 296
297 297 297 297 297 297 296 296 296 296 296 296 297 297 297 297 297 296 296 296 296 295 296 296 296 296 296 297 298 297 295 295 295 295 295 295 295 295 295 296 296 298 299 299 300 300 300 300 300 299 299 299 298 298 297 295 294 295 295 296 296 296 296 296 296 296 296 296 296 296 296 296 296 296
296 296 296 296 296 296 296 296 296 296 296 296 296 296 296 297 296 296 296 296 295 295 295 295 295 295 295 296 296 295 295 295 295 294 295 295 295 295 295 295 296 298 299 299 299 300 300 300 299 299 299 299 298 298 296 295 294 294 294 294 295 295 295 295 295 295 295 295 295 295 295 296 296 296
296 296 296 296 296 295 295 296 295 296 296 296 296 297 296 296 296 296 296 296 296 295 295 295 295 295 295 295 295 295 295 295 295 295 295 295 295 295 295 296 297 298 299 299 299 300 300 300 299 299 299 298 298 297 296 294 294 293 293 293 293 294 294 294 294 295 295 295 295 295 295 295 295 295
296 298 297 295 296 295 295 296 295 296 296 296 296 297 296 296 296 296 296 296 297 296 295 295 295 294 295 295 295 295 295 295 295 295 295 296 296 296 296 296 296 297 298 299 299 300 300 300 299 299 298 298 298 297 295 294 294 294 293 293 293 293 293 293 293 294 294 294 295 295 295 295 295 295
298 302 301 295 295 295 295 295 295 295 296 296 296 296 296 296 297 297 297 298 298 297 296 295 295 294 295 295 295 295 296 296 296 296 296 296 296 296 296 297 297 297 298 299 299 300 300 299 299 298 298 298 298 297 296 295 294 294 294 293 293 293 293 293 293 294 294 294 294 294 294 294 294 295
300 303 302 296 295 296 295 295 296 296 296 296 296 296 296 297 298 299 299 300 300 299 297 295 294 295 295 296 296 296 297 297 297 297 296 296 296 296 297 297 297 298 298 299 299 299 299 299 299 298 298 298 298 297 297 296 295 294 293 293 293 293 293 293 293 294 294 294 294 295 295 294 294 294
305 304 302 297 295 296 295 295 296 296 296 296 296 296 296 298 299 299 301 302 301 300 297 295 294 295 296 297 297 298 298 298 298 297 297 297 297 297 297 298 298 298 298 298 299 299 299 299 299 298 298 298 298 298 297 296 296 295 294 293 293 293 293 293 293 294 294 295 295 295 295 295 294 294
307 306 303 299 299 299 298 296 295 296 296 296 296 296 297 298 298 299 302 303 301 299 296 295 295 297 298 299 299 298 299 299 298 298 297 297 297 297 297 298 298 298 298 298 299 299 299 299 298 298 298 298 298 298 297 297 296 295 294 293 293 294 294 294 294 295 295 296 296 295 295 294 294 294
306 305 302 302 303 303 300 297 295 295 295 296 296 296 297 297 297 300 303 302 299 297 295 296 297 298 299 299 299 299 299 299 298 298 297 297 297 297 297 297 297 297 297 297 299 299 299 299 298 298 298 297 297 298 297 297 296 295 294 293 293 294 295 295 295 296 296 297 297 296 295 294 294 294
303 302 300 299 302 302 299 296 295 295 295 296 296 296 297 296 297 301 302 299 297 296 296 298 299 299 300 299 299 299 299 298 298 298 297 297 297 297 297 297 297 297 297 297 298 299 299 298 298 298 298 297 297 297 297 297 296 295 294 293 293 294 295 296 296 296 297 298 298 297 296 296 295 295
299 298 297 296 298 299 298 296 295 296 296 296 296 297 297 296 297 299 298 296 296 297 298 299 300 300 300 299 299 299 298 298 298 298 297 297 297 297 298 297 297 297 297 297 298 298 298 298 298 298 298 297 297 297 297 297 296 294 294 294 294 295 296 297 297 297 298 298 298 298 298 297 297 296
297 298 297 295 297 298 297 296 296 296 296 296 296 297 297 297 297 296 296 296 297 299 300 300 300 300 300 299 299 299 299 298 298 298 298 297 297 297 297 297 297 297 297 297 297 298 298 298 298 298 298 297 297 297 297 297 296 295 294 295 295 296 297 298 298 298 298 298 299 299 299 298 298 297
298 300 298 295 295 296 295 296 295 296 296 296 296 297 297 297 296 296 296 297 298 299 300 300 300 300 300 300 299 299 299 299 299 299 298 298 297 297 297 297 297 297 297 297 297 297 298 298 298 298 298 297 297 297 297 297 296 295 295 296 297 298 298 299 299 299 299 299 299 300 300 300 299 297
300 300 298 295 295 295 295 296 295 296 296 296 296 297 297 296 296 296 297 298 299 300 300 301 301 300 300 300 300 300 300 299 299 299 299 298 298 298 297 297 297 297 297 297 297 297 298 298 298 298 297 297 297 297 297 297 296 295 295 296 297 299 299 300 300 300 300 300 300 301 301 300 299 298
301 300 298 295 295 295 295 295 295 296 297 296 296 297 297 296 296 297 298 299 300 300 301 301 301 300 300 300 300 300 300 299 300 300 299 299 298 298 298 298 297 297 297 296 297 297 298 298 298 297 297 297 297 297 297 297 296 295 295 296 298 299 300 301 301 301 301 301 301 302 302 301 300 299
302 301 300 298 297 297 296 296 295 296 296 296 296 297 297 297 297 298 300 300 300 300 301 301 300 300 300 300 300 300 300 300 300 300 299 299 299 298 298 297 297 297 297 296 296 297 298 298 298 297 297 297 297 297 297 297 296 296 297 298 299 300 300 301 302 302 302 302 302 303 303 302 301 299
303 302 302 301 300 300 298 296 295 296 296 296 296 297 298 298 298 300 300 301 300 300 301 301 300 300 300 300 300 300 300 300 300 300 299 299 299 298 297 297 297 297 296 296 297 297 297 297 297 297 297 297 297 297 297 296 296 296 297 298 299 300 301 302 302 302 302 303 303 303 303 302 300 298
302 302 303 302 301 301 299 297 296 296 296 296 297 298 299 299 300 300 301 301 300 300 301 301 300 300 300 300 300 300 300 300 300 300 300 299 299 298 297 296 297 296 296 296 297 297 297 297 297 297 296 297 297 297 297 296 296 296 296 297 299 301 301 302 303 304 303 304 304 303 303 301 299 297
302 302 303 302 301 300 298 296 296 296 296 297 299 300 300 300 300 301 301 301 301 300 301 301 300 300 300 300 300 300 300 300 300 300 299 299 299 299 297 296 296 296 296 297 297 297 296 297 297 297 296 297 297 297 297 296 296 296 296 296 298 300 302 302 304 305 305 305 304 304 303 301 298 296
301 302 302 302 301 299 297 295 296 296 297 299 301 301 301 301 301 301 301 301 301 300 301 301 300 299 300 300 300 300 300 300 300 299 300 299 299 299 298 298 297 296 296 297 297 296 296 297 297 297 296 297 297 297 297 296 296 296 297 296 297 299 301 303 304 304 304 305 304 304 303 302 300 298
300 301 301 301 300 298 296 295 296 296 298 301 302 302 302 302 302 301 301 301 301 301 301 301 300 299 300 300 300 300 300 300 300 300 300 299 299 299 299 299 298 298 297 297 297 296 296 297 297 297 297 297 297 297 297 297 296 295 296 297 297 297 299 302 304 304 304 304 304 304 304 304 303 301
299 299 299 299 298 296 295 295 296 297 299 302 303 302 302 302 302 302 301 301 301 301 301 301 300 300 300 300 300 300 300 299 299 300 300 299 300 300 299 299 299 298 298 298 297 297 296 297 297 297 297 296 296 297 296 296 296 295 296 297 297 297 298 300 302 303 304 304 304 304 304 305 304 304
297 297 297 296 296 295 295 295 296 298 301 303 303 303 303 303 302 302 301 301 301 301 301 301 301 300 300 300 300 300 299 299 300 300 300 299 299 299 299 299 299 299 299 299 298 298 297 297 296 296 297 297 296 296 296 296 296 295 295 296 297 298 298 298 300 301 303 304 303 303 304 305 305 305
295 295 295 295 295 295 295 296 298 300 302 303 303 302 302 302 301 301 301 301 301 300 301 301 301 301 300 300 300 299 299 299 300 299 299 300 299 299 299 299 299 299 299 299 299 298 298 297 297 296 297 297 297 296 296 296 296 295 295 296 297 297 298 298 298 299 301 302 302 303 304 304 304 305
294 294 295 295 295 295 296 298 299 301 302 302 302 302 301 301 301 301 301 301 300 300 301 301 301 301 300 300 300 299 299 299 299 299 299 300 299 299 299 299 299 299 299 299 299 299 298 298 297 297 297 297 297 297 297 296 296 295 295 296 296 297 297 298 298 299 300 301 302 303 303 303 303 303
294 294 294 295 295 295 296 297 298 300 301 301 302 302 302 302 302 302 302 301 301 301 301 301 301 301 300 300 299 299 299 299 299 299 300 300 299 299 299 299 299 299 299 299 299 299 299 299 298 297 297 297 297 297 297 297 296 295 295 295 296 296 297 298 298 298 299 300 301 302 302 302 302 303
294 294 294 294 295 295 295 296 298 299 301 301 301 302 302 302 302 302 302 301 301 301 301 301 301 300 300 299 299 299 300 299 299 299 299 299 299 299 299 299 299 299 299 299 299 299 299 299 298 298 298 297 297 297 297 297 297 296 295 295 296 296 297 297 298 298 298 298 299 299 300 301 302 302
294 294 294 294 295 295 295 297 299 300 301 302 302 302 302 302 302 302 302 301 301 301 301 301 301 300 299 299 299 300 300 299 299 299 299 299 299 299 299 299 299 299 299 299 299 299 299 299 299 298 298 297 297 297 297 297 297 297 296 295 295 296 296 297 297 298 298 298 298 298 299 300 301 301
294 294 294 295 295 295 295 297 299 301 302 302 303 302 302 302 302 302 302 302 302 301 301 301 300 300 299 300 300 300 300 299 299 299 299 299 299 299 299 299 299 299 299 299 299 299 299 299 299 299 298 298 298 297 297 297 297 297 296 295 295 296 296 296 297 297 298 298 298 298 299 300 300 301
294 294 294 294 295 295 294 296 299 301 302 302 303 302 303 303 303 302 302 302 301 301 301 301 300 299 299 300 300 300 299 299 299 299 299 299 299 299 299 299 299 299 299 299 299 299 299 299 299 299 299 298 298 298 297 297 297 297 297 296 295 295 295 296 297 297 298 298 298 298 299 300 301 302
294 294 294 294 294 295 295 296 299 302 302 302 303 303 303 303 303 303 302 302 301 301 301 300 300 299 299 300 300 299 299 299 299 299 299 299 299 299 299 299 299 299 299 299 299 299 299 299 299 299 299 299 298 298 298 298 298 298 297 296 296 296 295 295 296 297 297 298 298 298 298 298 299 300
294 294 294 294 295 295 294 296 299 301 302 302 302 303 303 303 303 303 302 302 301 301 300 300 299 299 299 299 299 299 299 299 299 299 299 299 299 299 299 299 299 299 299 299 299 299 299 299 299 299 299 299 299 299 299 298 298 298 297 297 296 296 296 295 295 296 297 297 298 298 298 298 298 299
296 296 297 297 297 297 296 297 299 301 302 302 303 303 303 303 303 303 302 302 301 301 300 300 299 299 299 299 299 299 299 299 299 299 299 299 299 299 299 299 299 299 298 299 299 299 299 299 299 299 299 299 299 299 299 299 299 298 298 297 297 296 296 296 295 295 296 297 297 297 298 298 298 298
297 299 301 300 299 299 299 299 300 301 302 303 303 303 303 303 303 302 302 301 301 300 300 299 299 299 299 299 299 299 299 299 299 299 299 299 299 299 299 299 299 299 298 298 299 299 299 299 299 299 299 300 299 299 299 299 299 299 299 298 297 297 297 297 296 295 295 296 297 297 298 298 298 298
297 300 301 301 300 299 300 300 301 302 303 303 303 303 303 303 303 302 302 301 300 300 300 299 299 299 299 299 299 299 299 299 299 299 299 299 299 299 299 299 298 298 298 299 299 299 299 299 299 299 299 300 300 300 300 300 299 299 299 299 298 297 297 297 297 296 295 296 296 297 297 297 298 298
Wind_Speed
9 9 8 7 6 6 5 5 5 6 7 6 7 6 5 4 2 1 1 3 4 8 12 12 12 13 15 19 21 22 23 24 26 28 30 33 34 35 35 35 36 36 36 35 35 36 37 37 36 36 36 39 41 43 43 42 42 41 41 42 41 38 36 34 35 33 30 28 29 29 29 29 30 31
9 8 8 7 6 6 6 6 6 6 7 7 6 6 7 6 5 3 3 4 4 8 12 13 15 17 18 20 22 23 24 24 27 29 32 33 34 35 35 35 36 36 35 34 34 34 36 35 35 36 39 42 44 45 45 44 42 41 42 42 41 40 39 37 35 32 29 28 27 28 30 31 31 31
9 9 8 8 7 7 7 7 6 5 5 6 6 5 6 7 7 6 6 7 7 8 12 15 16 18 19 22 23 24 24 25 27 30 32 34 35 35 36 36 36 36 35 33 32 33 35 34 34 37 41 44 46 47 48 46 44 43 42 41 39 39 38 36 34 31 29 27 26 27 27 28 30 30
10 9 9 8 8 8 8 7 6 6 6 6 5 5 6 6 7 8 8 10 11 10 12 16 18 18 20 22 23 24 24 25 27 29 32 34 35 36 37 37 36 35 34 32 31 33 33 32 33 38 43 47 48 49 48 47 45 44 41 37 35 35 35 34 31 28 27 26 26 27 27 27 28 30
10 9 8 7 7 7 8 7 5 5 6 5 5 4 4 4 6 9 9 11 14 13 13 17 19 19 20 22 24 23 24 25 26 28 32 33 35 37 38 37 36 35 33 32 31 31 30 30 33 39 44 47 49 48 47 46 45 42 38 35 34 33 33 31 29 28 27 26 27 27 27 27 27 28
9 9 8 7 6 6 6 6 5 4 4 4 3 2 3 4 6 9 10 12 15 17 17 19 20 20 20 22 23 23 24 25 26 30 32 33 35 37 37 37 36 35 33 32 31 29 28 29 33 39 43 47 48 46 46 45 42 39 36 35 34 33 32 30 29 28 27 26 26 26 26 26 26 27
9 9 8 7 7 6 6 5 5 4 2 3 2 2 3 4 6 8 10 11 14 18 20 21 22 22 22 22 23 23 23 23 27 31 32 34 36 37 37 37 36 35 34 32 29 27 27 30 35 40 45 50 52 49 49 47 41 38 36 34 34 32 30 28 27 26 26 25 24 24 25 25 26 26
10 9 8 8 7 7 6 5 5 4 1 1 1 2 3 4 6 8 10 11 13 16 20 21 22 22 22 22 23 23 22 24 29 31 32 35 37 37 38 37 36 35 34 31 28 27 27 31 38 43 48 54 55 55 57 53 43 38 36 32 31 31 29 27 26 25 25 25 23 23 23 24 25 26
10 10 9 8 8 7 6 5 4 3 1 0 0 1 3 5 7 9 11 12 13 15 19 21 22 21 21 22 23 22 23 28 31 30 31 35 37 38 38 38 36 35 34 31 29 27 29 35 41 46 50 55 55 57 60 55 42 35 31 29 30 29 26 25 24 25 26 26 25 24 23 23 24 24
11 10 9 8 8 7 5 4 3 3 1 1 1 3 4 6 8 10 12 13 14 14 17 20 21 21 22 23 22 22 25 30 31 32 34 36 37 38 40 40 38 36 34 31 29 30 33 38 43 48 52 53 54 57 60 54 42 33 27 27 29 30 29 29 28 28 29 29 28 28 27 26 25 25
11 10 10 9 7 6 5 3 3 2 1 1 3 4 6 8 9 11 13 14 15 16 17 19 21 22 23 23 23 25 28 29 30 33 37 39 39 39 40 42 40 37 33 32 32 34 36 39 44 48 50 52 54 58 59 50 40 34 29 29 32 33 34 34 33 31 30 30 30 31 31 30 29 28
11 10 10 9 6 5 4 3 2 2 1 2 4 5 7 9 11 12 14 15 16 18 20 22 23 24 25 24 25 28 30 30 31 34 36 39 41 41 42 43 41 38 34 35 38 38 37 41 46 48 49 52 55 59 56 45 37 35 33 33 34 34 35 35 34 33 32 32 32 32 32 32 31 30
11 11 10 7 6 6 5 3 3 2 2 3 5 6 8 10 11 13 14 16 17 20 23 25 25 27 27 26 28 30 29 29 32 35 36 39 41 43 44 44 41 38 36 38 42 41 39 42 46 48 50 53 56 58 54 45 40 40 38 36 35 35 35 34 34 34 34 34 34 33 34 33 31 31
11 10 9 7 6 6 5 3 4 3 3 4 6 8 9 10 11 13 16 18 19 22 25 26 27 28 27 27 28 29 29 30 33 36 38 40 42 44 46 46 43 40 39 41 43 41 40 43 46 49 52 53 55 57 52 46 44 43 42 40 38 35 33 31 29 29 30 31 32 32 33 33 32 31
10 9 8 7 7 6 5 5 5 4 3 5 7 8 10 11 12 15 17 19 20 23 26 27 28 28 27 27 28 28 29 32 34 37 39 40 43 45 47 47 46 43 42 42 43 42 41 42 46 51 53 52 56 58 52 48 46 44 42 42 39 34 31 30 27 25 24 25 27 29 30 31 31 31
8 9 9 7 7 7 6 6 5 3 3 5 7 9 10 11 13 16 18 19 20 23 26 28 29 28 27 27 27 28 30 33 35 37 38 40 42 44 45 45 46 45 43 41 42 42 42 42 47 53 54 53 58 59 53 50 48 46 43 41 37 31 28 27 28 26 24 24 26 28 28 29 29 30
7 10 10 8 7 6 6 5 4 4 5 6 8 10 11 11 13 15 16 18 20 24 26 28 29 27 25 26 27 29 31 33 36 37 39 40 41 42 42 43 44 44 42 40 41 43 42 43 49 54 54 54 59 59 55 52 50 48 46 41 35 30 25 22 23 24 23 23 25 26 26 28 28 27
12 14 11 8 6 7 7 5 4 4 5 7 8 10 11 11 12 13 14 16 20 23 25 27 27 24 22 25 28 30 31 32 34 36 39 40 40 40 40 41 42 41 40 40 41 42 43 46 50 54 54 56 60 60 57 54 52 51 48 42 36 31 24 20 18 18 19 20 21 22 22 25 27 25
18 16 12 8 7 9 10 6 4 5 6 7 9 10 10 10 9 10 12 15 18 21 22 22 21 21 22 26 29 30 30 31 32 34 36 38 39 39 40 41 42 41 41 40 39 41 45 47 50 54 55 58 61 60 58 56 54 51 48 44 38 32 25 20 17 17 17 17 18 19 19 20 22 22
17 15 14 12 12 13 12 7 5 6 6 7 9 9 9 9 9 8 11 14 16 17 16 16 18 21 24 27 28 29 30 30 31 33 35 37 38 39 40 41 43 44 43 40 38 41 47 48 50 53 55 59 63 60 58 59 56 51 49 46 41 32 24 19 17 16 16 16 16 16 16 15 16 17
14 15 14 13 13 13 12 8 6 6 7 7 8 9 9 10 9 8 10 13 13 12 14 16 20 23 24 25 26 27 28 29 30 32 35 37 38 39 39 41 43 45 44 40 40 44 47 48 51 52 53 59 62 60 60 62 58 53 50 46 38 30 22 17 15 15 16 15 14 14 12 11 11 12
13 14 13 12 13 13 9 6 6 7 7 7 8 9 10 10 10 9 11 12 11 12 16 19 21 22 23 24 24 25 26 27 29 32 35 37 37 37 39 40 42 44 43 41 43 45 47 48 51 51 52 57 59 59 62 63 60 56 53 45 33 25 21 16 12 13 15 14 13 12 10 10 10 11
13 14 13 12 13 12 8 6 7 7 7 8 9 10 11 11 10 9 11 12 13 16 19 20 21 21 21 22 23 24 27 28 30 32 34 35 35 36 38 40 41 43 44 43 44 45 46 48 49 50 51 55 59 61 64 64 61 58 54 43 31 24 20 15 11 10 11 12 11 10 9 10 11 13
12 14 13 12 13 12 9 8 9 8 8 8 9 10 11 11 10 9 11 13 14 17 19 20 20 20 20 21 23 25 27 29 31 32 33 34 35 36 37 39 39 41 43 43 43 43 44 45 47 48 48 50 55 60 63 63 60 58 56 44 30 25 22 17 12 9 9 10 10 9 9 9 12 15
13 14 13 11 11 12 10 9 9 8 8 8 9 10 10 10 9 8 11 14 15 17 18 18 19 19 20 22 23 25 28 30 31 32 33 35 36 37 37 38 39 40 41 41 40 39 41 43 45 46 47 49 51 56 61 64 61 59 57 44 29 25 24 20 17 12 7 7 8 8 9 9 12 13
12 13 13 11 10 10 10 9 8 9 9 9 9 9 9 9 7 7 10 13 15 17 17 16 18 20 20 22 24 25 28 30 31 31 33 35 38 39 38 37 37 39 39 39 37 36 38 41 43 45 48 50 51 52 57 63 64 62 58 46 31 26 26 21 17 14 9 8 9 7 6 6 8 8
12 14 14 13 12 11 10 9 9 9 9 9 9 8 7 8 6 6 8 11 14 17 16 15 18 20 20 22 24 26 28 29 30 31 33 35 38 40 39 36 35 35 35 36 35 34 37 40 41 43 47 49 49 49 53 59 62 62 61 51 36 29 29 24 18 14 11 11 11 8 6 5 4 5
15 16 16 16 16 14 12 11 10 10 9 8 8 7 7 7 6 5 7 9 12 15 15 14 17 19 19 21 24 25 27 28 28 30 31 32 35 39 39 37 36 35 35 35 35 35 37 38 39 42 45 46 46 46 49 54 59 60 61 56 44 32 29 27 21 16 12 12 15 14 13 11 6 3
19 19 19 18 18 16 13 12 11 10 8 7 6 6 6 7 7 6 6 7 10 15 14 13 17 19 18 20 23 23 25 26 27 29 31 31 34 38 39 39 38 37 36 36 36 36 37 38 39 42 44 44 43 43 45 51 58 59 59 59 52 39 31 29 28 23 16 13 14 17 19 19 12 4
20 20 21 20 19 16 13 12 11 9 7 6 6 6 6 7 7 7 6 5 9 14 12 11 17 19 18 19 22 22 23 26 27 28 31 32 34 36 39 40 40 40 39 38 38 37 37 37 39 42 43 42 42 42 43 47 55 60 59 59 56 45 35 30 28 27 24 18 13 13 17 19 17 11
22 22 22 21 19 17 14 12 11 9 7 6 7 7 7 8 7 8 9 9 11 12 9 12 18 19 17 19 22 22 23 26 26 27 29 32 34 35 37 40 41 42 44 43 41 39 37 37 39 42 43 42 41 41 41 43 52 58 58 58 58 51 39 30 24 24 25 22 15 12 13 15 15 13
24 23 22 20 19 17 15 13 11 10 8 5 7 8 9 9 9 11 12 12 12 11 10 15 19 18 16 20 22 21 22 25 26 26 28 30 32 34 36 38 40 41 43 44 44 42 40 39 39 41 43 44 42 41 41 42 49 56 57 57 59 56 46 34 27 21 19 18 18 17 16 16 13 10
26 24 22 21 19 17 15 13 11 9 6 6 9 9 8 7 9 11 11 11 11 11 13 17 18 16 16 19 20 19 22 24 25 25 27 29 31 33 35 38 39 40 40 42 44 44 43 42 42 41 42 43 42 41 41 42 47 55 57 55 57 59 53 41 30 23 16 13 15 15 14 14 13 10
26 25 22 20 18 16 14 13 11 8 7 8 11 10 9 10 12 12 11 12 13 13 14 16 16 15 16 18 18 19 21 23 24 25 27 29 30 32 35 37 39 39 38 40 42 43 42 43 45 43 42 43 42 42 42 42 45 52 55 53 53 56 57 50 37 26 19 14 12 12 10 10 10 10
25 24 21 19 17 16 15 13 12 11 10 11 13 13 13 13 13 12 13 14 13 12 13 15 15 15 16 17 18 19 20 21 23 24 26 28 29 31 34 37 38 38 37 38 41 42 41 42 45 45 45 45 44 43 44 42 43 49 53 52 50 51 54 55 48 36 25 19 14 11 9 8 8 8
23 23 21 19 17 16 15 14 13 12 11 12 13 14 13 13 13 14 14 14 12 12 14 14 14 14 15 17 18 18 18 19 21 22 24 27 29 31 33 35 37 37 37 38 40 40 40 41 43 44 45 46 45 45 45 42 42 47 51 51 49 48 50 54 55 47 36 27 21 16 14 13 11 9
21 21 20 19 17 15 14 13 11 10 10 12 14 13 12 12 13 14 13 12 12 13 13 12 12 14 16 17 17 16 16 18 20 21 23 26 28 31 33 34 35 37 38 39 40 39 38 40 42 42 41 43 43 44 44 41 38 44 49 49 47 46 46 49 55 54 47 38 30 23 18 16 14 12
21 20 20 19 18 16 15 14 11 10 11 13 13 13 13 14 14 14 13 13 13 13 12 13 15 16 16 15 14 14 16 18 19 20 22 24 26 30 31 32 34 36 38 40 41 40 38 40 41 41 39 38 39 41 42 40 37 41 47 47 44 44 44 46 50 53 51 47 41 35 27 20 15 13
21 21 20 20 19 18 17 15 12 12 13 14 15 15 15 14 13 13 12 12 13 13 14 16 17 15 15 14 13 14 16 18 19 20 21 22 26 28 29 31 33 35 36 39 41 41 40 40 41 39 36 34 36 38 38 36 35 38 44 46 43 42 43 44 46 49 51 49 47 45 39 31 24 17
21 21 20 20 20 19 17 15 12 11 13 15 16 16 15 14 13 13 12 12 13 14 16 18 18 16 15 13 13 14 16 18 19 19 20 22 25 26 27 30 32 33 35 37 40 41 41 40 40 38 33 31 33 35 34 33 34 36 42 45 43 41 41 42 43 46 49 49 47 47 46 43 38 31
21 20 20 20 20 19 18 16 13 12 14 16 15 15 15 15 15 15 14 14 15 16 18 19 18 15 14 13 12 13 16 17 18 18 20 23 24 23 25 28 31 31 33 35 37 39 40 39 38 36 33 31 33 35 36 36 36 37 40 43 42 40 39 41 40 41 45 48 47 47 46 46 47 45
19 19 19 19 19 19 18 16 15 14 14 16 16 16 16 16 15 15 15 15 16 17 17 17 15 14 13 13 13 14 16 16 17 19 20 21 21 21 23 27 29 30 32 34 35 37 38 38 38 37 35 33 34 36 38 36 34 35 38 41 41 38 37 39 40 39 40 45 48 47 45 46 49 51
17 16 15 14 14 14 14 13 13 13 14 15 16 15 16 16 15 15 15 16 16 16 15 14 14 14 14 14 14 15 16 16 17 19 20 20 20 21 24 26 28 29 31 32 34 35 36 37 37 37 36 34 33 36 37 34 31 32 36 39 39 37 36 37 39 38 37 39 44 45 43 42 45 46
17 15 14 13 13 13 13 13 12 13 15 17 17 17 17 17 16 16 16 16 16 15 14 14 14 14 14 15 16 16 16 16 18 19 20 19 20 22 24 26 27 29 31 32 32 34 35 35 36 36 36 34 33 34 35 32 29 30 33 36 37 37 35 34 37 38 36 36 39 42 41 40 40 40
18 16 15 15 15 15 15 15 15 15 16 17 17 17 16 16 16 17 17 16 16 15 14 14 14 14 15 16 17 17 17 17 19 20 19 20 21 23 25 26 27 28 29 29 30 32 33 34 34 35 34 32 31 32 33 31 29 29 31 34 35 35 35 33 33 36 36 34 34 37 39 38 37 37
Wind_Direction
180 175 170 165 161 161 156 151 156 151 139 124 107 99 97 91 90 144 309 310 289 302 321 336 339 337 342 342 343 347 347 348 345 342 344 346 346 347 344 342 342 341 339 335 331 329 327 327 329 331 331 328 327 326 325 323 320 318 317 315 314 311 306 303 300 296 292 286 281 278 273 271 270 267
177 170 163 162 159 156 153 150 155 156 141 118 99 92 81 60 55 63 358 338 311 314 332 342 340 345 346 341 344 347 343 342 342 341 343 344 344 344 343 342 340 338 336 332 329 327 327 328 331 332 330 328 328 326 324 323 320 318 317 315 312 309 306 306 303 298 293 287 282 280 277 272 270 269
168 164 162 162 159 155 155 153 148 145 133 114 97 85 67 36 23 25 358 340 341 334 336 344 347 345 343 343 343 341 340 340 338 338 339 339 341 343 342 340 337 336 335 332 329 327 328 331 334 333 331 330 328 326 325 324 321 319 317 315 312 309 307 305 302 299 294 288 282 279 278 274 272 270
167 171 174 172 172 166 156 149 140 129 113 96 85 68 49 17 359 3 349 335 345 352 339 340 348 347 342 341 339 337 337 335 332 333 334 336 341 344 341 337 335 336 337 335 331 327 329 334 335 332 331 330 328 326 325 324 322 321 320 318 317 315 311 306 302 300 298 292 285 279 277 274 271 269
175 179 183 179 182 179 162 152 145 136 117 86 66 49 33 9 351 351 346 335 340 354 353 345 349 351 341 336 338 338 332 329 328 328 331 338 343 343 339 335 336 338 338 337 332 329 333 336 333 330 330 331 329 326 324 323 322 321 321 320 319 318 315 309 302 300 300 298 292 283 277 274 271 270
184 185 185 178 174 173 163 150 143 143 127 97 68 39 17 6 355 345 342 339 336 343 352 350 348 347 339 334 338 335 327 327 325 324 333 341 343 343 340 336 338 340 339 336 332 333 337 332 326 327 331 335 336 331 325 322 320 320 319 318 317 317 315 311 306 302 301 300 296 288 279 273 270 270
188 188 184 178 173 169 165 155 145 148 139 107 85 40 9 355 351 344 339 340 336 334 342 347 343 339 337 334 331 328 326 324 322 326 337 342 342 344 343 339 340 341 339 335 333 337 334 324 321 325 330 337 342 341 336 329 321 317 316 315 316 317 315 311 309 307 304 301 297 292 286 278 272 269
189 190 184 180 182 176 174 175 157 149 150 105 87 28 2 347 345 345 342 342 337 329 331 339 338 334 334 330 325 327 325 320 324 333 338 339 342 346 346 342 341 341 339 335 335 336 328 319 321 326 330 335 340 342 341 335 325 318 316 314 315 315 314 310 306 303 301 302 299 294 289 284 278 272
189 190 190 187 190 188 183 183 165 151 163 151 57 1 354 348 344 345 343 343 341 332 328 331 333 333 329 325 327 330 324 322 331 337 336 338 343 346 346 344 341 340 338 336 337 335 324 318 321 327 333 336 337 339 340 338 330 320 317 317 315 314 311 306 301 299 299 300 299 296 291 286 282 276
195 194 196 197 197 199 196 189 179 170 184 286 334 348 346 341 341 342 343 344 345 339 330 329 332 333 330 328 330 329 326 329 336 335 333 340 347 347 345 343 341 339 338 337 337 332 322 319 324 331 335 336 337 338 339 338 333 326 322 317 311 307 305 303 301 300 300 298 297 295 293 289 284 278
200 199 202 206 203 203 209 204 194 195 237 311 329 341 340 338 341 343 343 346 347 343 338 338 338 337 336 335 331 329 333 338 338 335 335 339 346 347 345 341 338 339 339 337 336 330 323 322 327 332 334 335 338 340 339 338 335 328 319 308 301 297 298 301 301 300 299 296 295 292 290 288 285 282
201 202 206 209 204 201 214 222 222 246 283 317 332 335 336 338 341 343 342 344 346 345 345 346 344 340 340 338 334 335 341 340 337 339 339 338 342 343 342 340 338 337 338 336 334 331 325 325 329 331 332 335 339 341 340 338 335 329 318 306 299 295 294 295 295 294 294 292 291 289 288 286 282 280
202 208 210 206 203 203 209 225 238 257 283 310 327 330 335 339 338 340 342 343 345 347 348 348 346 343 342 340 337 339 342 338 337 342 343 340 340 338 337 339 339 338 338 335 333 332 329 327 330 332 333 337 340 342 341 339 336 334 328 319 308 298 293 293 292 289 288 288 288 285 284 284 281 276
200 211 216 205 204 212 213 231 254 265 292 315 327 329 332 334 334 340 346 347 348 347 347 348 346 344 341 338 337 339 341 341 342 345 344 339 338 337 333 335 339 342 339 334 333 332 331 330 331 333 335 338 342 344 345 343 339 335 332 329 319 305 294 290 290 288 285 284 285 284 281 280 278 275
198 208 223 211 205 218 220 227 247 259 297 319 326 327 325 328 337 345 347 346 346 345 345 346 345 342 337 336 340 343 344 346 346 345 343 338 336 336 332 330 335 341 339 334 331 330 331 331 332 334 337 339 343 345 345 345 343 338 333 331 326 315 300 289 284 283 283 283 285 286 281 276 274 272
203 211 226 224 217 225 224 227 244 263 300 315 322 321 320 331 343 344 341 340 340 341 341 342 342 341 336 337 345 349 347 346 345 344 342 338 336 334 332 329 331 336 338 335 330 328 330 332 332 333 336 338 341 344 343 344 345 342 338 334 328 321 310 298 286 280 282 286 287 285 280 274 271 269
219 228 235 240 237 236 237 242 261 288 309 319 324 320 322 336 342 338 336 336 335 336 338 338 339 341 341 342 349 352 349 344 342 341 340 339 337 335 332 329 329 332 336 335 329 326 329 333 332 332 336 338 340 343 344 344 343 342 341 338 333 325 314 304 293 285 284 286 286 284 278 272 269 266
214 227 235 243 254 262 258 253 265 291 308 316 318 319 327 336 337 336 337 332 330 334 336 334 336 343 348 347 348 350 347 342 340 340 339 338 338 336 332 330 329 332 336 335 330 326 329 333 332 333 336 338 340 344 345 344 343 342 341 340 337 330 316 301 290 281 279 281 284 285 278 268 265 263
214 223 227 220 224 250 259 260 269 283 298 308 311 319 327 331 339 344 335 326 329 334 334 333 339 349 353 351 348 346 344 341 340 340 338 337 337 335 333 332 333 334 336 337 332 326 328 333 332 334 337 338 339 344 346 345 344 343 342 341 339 334 320 300 282 271 272 280 285 286 279 268 263 261
221 226 229 220 215 234 252 260 264 275 291 302 308 319 323 327 344 345 324 323 331 335 337 345 355 358 356 352 347 344 343 342 341 339 337 338 338 336 335 334 334 334 337 340 336 328 329 333 333 334 337 338 339 343 346 346 347 346 345 343 340 336 324 301 280 269 274 281 282 282 280 272 264 261
224 227 230 223 219 234 250 256 256 271 289 299 307 317 320 325 337 336 327 333 342 349 358 5 5 3 357 350 346 346 344 343 342 339 338 340 341 339 336 334 334 335 337 341 339 332 330 334 334 335 337 338 340 344 347 349 351 350 348 346 344 341 334 314 287 272 275 281 280 280 280 276 269 262
219 227 232 222 223 238 254 261 262 273 288 299 306 312 317 326 334 343 345 346 355 8 12 11 8 3 356 349 347 347 345 343 344 344 344 345 344 341 337 335 334 335 337 342 341 334 332 336 338 337 338 339 342 346 348 350 353 353 351 350 351 352 350 338 315 289 280 281 281 281 277 271 266 260
216 227 235 227 231 245 255 262 268 277 289 299 305 309 318 330 341 353 358 358 6 14 13 11 7 360 352 348 348 347 345 347 350 351 350 348 346 342 339 338 337 334 336 342 344 336 333 337 341 342 341 340 342 346 350 352 355 356 355 355 356 360 0 353 335 305 284 279 281 284 280 268 258 256
218 228 232 226 233 245 246 251 264 277 288 297 304 311 321 335 345 356 5 11 14 12 11 8 360 352 349 348 347 346 347 350 352 352 351 351 350 346 342 341 339 334 335 342 344 338 334 338 342 344 345 341 340 343 349 354 356 357 359 0 358 356 355 349 339 320 290 279 280 280 279 268 256 252
222 232 238 230 230 239 242 248 261 275 288 298 305 312 325 339 348 358 9 15 14 11 9 3 351 346 348 348 346 346 349 352 353 350 349 351 353 351 347 344 341 338 339 343 344 339 338 341 342 343 346 344 340 342 348 355 358 359 2 6 3 355 352 343 337 340 326 301 293 280 271 265 259 253
226 238 250 247 235 233 239 247 261 276 289 300 305 313 332 346 354 7 13 12 8 6 4 356 346 345 346 345 346 347 350 353 353 348 347 350 352 353 352 349 346 343 342 344 347 346 343 343 343 344 346 345 343 343 349 355 359 2 7 11 8 3 4 357 347 353 355 341 332 312 284 272 265 258
223 238 250 253 247 243 246 256 270 280 291 301 304 313 338 356 4 12 15 11 5 359 355 348 343 343 343 344 345 347 351 353 351 348 348 350 352 353 354 354 353 351 348 349 353 353 348 345 346 347 348 346 344 345 349 354 358 3 7 11 10 8 12 11 2 357 0 8 15 9 350 331 290 246
212 226 236 242 245 250 257 263 269 276 288 300 307 313 339 5 11 2 5 11 360 346 340 339 340 340 341 343 343 346 351 351 349 350 351 351 353 354 354 356 357 356 355 357 359 355 350 349 350 350 349 348 346 346 348 353 358 2 5 8 11 12 12 15 18 17 20 41 50 43 26 14 356 255
206 217 229 237 242 249 256 258 263 274 284 298 316 324 337 357 2 352 0 8 345 332 330 332 336 337 339 341 342 346 351 349 348 353 354 353 355 356 357 0 2 1 2 3 1 357 353 353 353 352 351 351 349 347 348 353 360 4 5 7 10 11 12 21 33 39 39 43 49 43 33 27 26 37
208 215 226 235 241 248 253 254 261 272 276 293 330 341 334 337 339 337 345 337 321 326 328 321 328 336 339 338 341 346 349 348 351 354 354 353 357 358 358 0 3 6 8 7 2 359 357 356 355 354 353 353 352 351 351 354 0 5 8 10 11 11 12 21 37 50 50 44 42 42 37 32 32 42
214 218 226 236 244 251 252 253 262 267 267 298 336 336 322 323 322 319 324 318 314 325 321 307 319 332 335 335 341 346 345 346 352 354 352 352 356 357 357 358 360 4 9 8 3 1 1 359 356 355 355 355 354 354 354 358 2 5 8 13 15 15 14 16 29 49 57 57 59 64 62 53 42 37
219 223 230 239 245 248 248 251 260 259 256 292 326 319 314 322 319 314 317 314 312 318 305 297 312 326 329 331 340 343 339 343 350 352 350 351 354 355 356 356 357 360 3 4 3 4 4 1 357 357 358 358 357 357 358 1 5 6 7 12 17 20 20 18 18 30 49 62 65 66 70 72 65 55
221 227 235 241 242 243 243 248 253 253 267 309 319 314 315 311 297 295 297 292 293 297 291 295 310 323 325 329 336 336 335 341 347 348 349 352 353 353 354 356 357 358 360 359 360 3 5 2 359 360 1 0 359 360 0 2 6 7 7 11 15 20 23 23 19 17 26 44 54 57 64 70 69 74
222 229 235 238 238 239 241 246 252 260 282 293 285 281 280 274 274 278 280 279 283 286 289 298 311 319 321 327 331 330 332 339 344 346 350 353 352 351 353 354 357 359 359 357 358 1 2 1 1 2 3 3 3 2 2 2 4 6 8 10 13 17 22 25 24 20 21 28 37 43 48 50 49 52
222 227 231 234 234 236 240 246 249 251 257 261 263 268 273 275 277 279 278 279 282 284 290 299 308 314 319 324 325 325 328 336 343 348 350 350 350 351 353 354 356 359 358 356 357 360 0 0 1 2 2 2 3 3 3 3 3 5 7 9 11 13 18 24 27 27 24 23 28 35 31 21 17 16
221 227 232 236 238 240 245 247 244 239 242 253 264 271 276 278 281 283 286 289 286 283 291 299 304 310 316 319 320 323 326 332 342 348 346 344 347 350 352 355 358 359 357 355 356 359 360 0 2 1 360 360 360 360 1 1 3 6 8 8 9 10 13 19 26 30 29 25 25 30 31 29 27 18
223 227 232 237 239 241 246 250 246 242 248 258 265 270 276 279 281 284 289 292 286 284 293 298 296 300 310 314 317 324 330 334 340 343 339 340 345 348 350 354 357 358 356 356 357 359 358 359 2 2 0 359 357 356 357 360 2 6 9 9 8 9 10 14 21 27 31 32 32 32 31 32 35 31
227 229 232 236 238 239 243 246 246 253 263 266 265 267 271 273 275 278 280 280 280 284 290 286 283 294 309 315 317 327 335 336 336 335 335 339 343 344 348 353 355 356 355 356 359 0 357 358 3 4 1 359 356 353 353 357 1 5 9 11 10 9 10 12 16 20 26 31 35 38 37 37 37 32
231 233 236 238 240 243 245 241 238 248 260 262 260 263 268 273 276 278 280 279 279 280 277 273 278 297 316 319 318 325 331 331 330 332 335 337 337 341 347 352 353 352 353 355 360 1 359 358 2 4 2 359 356 353 353 356 360 4 7 10 12 12 12 13 14 16 20 25 31 36 39 44 47 44
236 239 242 244 245 247 248 240 233 242 257 260 262 267 272 274 274 274 274 274 274 273 271 273 282 300 316 320 320 324 325 325 327 331 333 332 334 340 348 351 349 349 350 354 358 360 359 359 1 4 4 0 358 359 1 3 5 7 7 10 12 13 14 14 13 14 18 20 24 29 34 38 41 42
238 241 245 248 250 252 251 244 236 243 256 260 261 265 268 269 272 275 276 274 271 270 272 277 288 305 319 323 321 318 317 321 327 330 329 329 333 342 347 347 345 346 349 352 355 357 359 359 0 3 6 4 2 4 6 6 6 7 7 10 12 13 14 16 14 13 16 18 21 25 29 31 33 35
240 243 248 252 253 255 255 247 238 241 252 258 260 263 267 269 272 275 276 276 277 278 280 286 294 303 308 308 307 307 312 319 324 325 327 330 336 341 342 340 342 346 347 349 352 354 357 359 0 2 6 7 4 3 2 3 4 6 6 9 12 13 14 16 16 15 15 17 20 23 24 26 29 31
242 250 260 263 260 259 260 251 241 244 255 262 263 264 266 269 271 271 272 275 279 281 283 285 288 291 292 294 299 304 308 313 317 323 330 334 334 333 333 335 341 345 346 347 350 352 355 357 359 1 4 6 5 2 1 3 6 7 6 8 12 14 14 15 16 16 16 17 21 23 23 24 28 29
237 246 263 271 269 264 262 258 252 252 257 260 262 265 268 269 270 270 271 275 277 278 278 281 285 289 291 293 297 300 300 306 316 325 329 329 327 327 331 335 339 341 342 344 347 350 353 356 358 359 2 5 5 3 2 4 7 7 5 6 10 15 16 15 16 17 16 17 20 22 23 24 26 26
230 229 239 250 254 255 256 257 255 255 258 261 264 266 267 267 269 270 271 273 275 277 280 284 287 289 291 294 298 300 301 306 316 322 323 324 327 329 331 333 334 335 338 341 345 347 350 354 357 357 359 3 6 5 4 4 5 5 4 4 8 13 15 15 16 17 18 19 19 19 21 24 24 24